sat.trackr.live / text

‹ back to catalog

STARLINK-4160

NORAD 53030 · 2022-076AW

PAYLOAD ACTIVE UNKNOWN

§ Identity

Operator
Country
US
Launch date
2022-07-07
Launch site
AFETR
Launch vehicle
Mass (kg)
RCS (m²)

Purposes: comms

External: N2YO · Heavens-Above · Gunter

§ Orbital elements

Epoch: 2026-05-25T04:18:03.598848Z

Period
95.44 min
Inclination
53.2133°
Eccentricity
0.0001394
Mean motion
15.08841774 rev/d
Perigee alt
538.8 km
Apogee alt
540.7 km
Semi-major
6,917.9 km
B*
-1.6416e-4
RAAN
100.9375°
Arg perigee
83.6512°
Mean anomaly
276.4639°
Rev number
21,453

§ Raw data

STARLINK-41601 53030U 22076AW  26145.17920832 -.00002900  00000+0 -16416-3 0  99912 53030  53.2133 100.9375 0001394  83.6512 276.4639 15.08841774214534

JSON: /api/v1/satellites/53030 · /tle

For live sub-satellite position, see the globe view (requires WebGL).

§ Visibility from observer

Set your observer location to see the next 7 days of passes ≥ 10°. The values pass through the URL so the page stays shareable.

No JS? Fill the form by hand. The geolocation button needs JavaScript.